Date,TemperatureHighF,TemperatureAvgF,TemperatureLowF,DewpointHighF,DewpointAvgF,DewpointLowF,HumidityHigh,HumidityAvg,HumidityLow,PressureMaxIn,PressureMinIn,WindSpeedMaxMPH,WindSpeedAvgMPH,GustSpeedMaxMPH,PrecipitationSumIn
2013-1-1,32.2,14.3,2.0,17.1,5.5,-6.1,80,69,48,30.67,30.46,13,1,17,0.02
2013-1-2,23.9,8.1,-3.1,9.3,-0.2,-10.7,75,68,49,30.68,30.49,5,0,5,0.00
2013-1-3,30.9,16.4,-5.0,12.3,2.5,-18.1,76,54,42,30.52,30.31,19,4,20,0.00
2013-1-4,42.9,28.5,20.8,26.8,16.4,9.5,81,61,46,30.37,30.19,24,4,25,0.04
2013-1-5,30.4,26.6,22.9,24.1,17.2,11.5,80,67,55,30.27,30.17,13,2,16,0.00
2013-1-6,40.8,32.1,24.5,25.2,22.0,16.6,78,67,48,30.20,30.05,24,6,25,0.02
2013-1-7,42.9,38.0,31.3,33.3,29.1,22.2,85,70,61,30.09,29.97,31,11,31,0.00
2013-1-8,45.2,40.1,35.9,34.0,30.2,26.8,81,68,55,30.10,29.89,42,11,42,0.00
2013-1-9,43.5,34.9,24.8,29.3,22.9,13.8,76,62,49,29.90,29.66,39,7,39,0.01
2013-1-10,34.7,22.6,10.9,19.0,12.1,4.6,78,64,34,30.07,29.84,16,3,17,0.00
2013-1-11,30.7,17.1,8.3,14.6,7.5,0.6,84,67,40,30.35,29.88,7,0,8,0.00
2013-1-12,30.1,12.5,5.8,7.2,1.2,-1.3,72,62,28,30.41,29.88,10,1,11,0.00
2013-1-13,32.2,13.5,0.0,8.2,0.8,-4.9,79,53,25,30.52,29.99,5,0,5,0.00
2013-1-14,40.5,21.1,8.4,18.3,7.1,-1.9,75,56,31,30.54,30.07,12,1,16,0.00
2013-1-15,50.5,29.0,16.7,24.7,16.2,8.8,80,61,30,30.66,30.41,10,0,11,0.00
2013-1-16,51.4,29.4,18.3,22.9,15.8,10.8,77,60,24,30.67,30.46,3,0,3,0.00
2013-1-17,53.9,33.9,23.6,22.1,15.7,10.5,70,50,19,30.51,30.30,14,1,14,0.00
2013-1-18,56.7,35.2,25.6,23.3,15.7,10.0,70,48,16,30.41,30.20,19,3,19,0.00
2013-1-19,55.6,32.3,20.6,20.8,14.8,6.9,74,54,14,30.46,30.25,10,1,11,0.00
2013-1-20,49.6,30.2,18.4,20.1,13.9,9.8,77,54,24,30.47,30.28,16,1,16,0.00
2013-1-21,52.5,33.2,21.8,17.4,11.6,5.8,69,43,17,30.32,30.09,18,3,20,0.00
2013-1-22,54.5,35.4,25.1,20.8,13.9,8.2,71,43,20,30.19,29.95,19,2,20,0.00
2013-1-23,45.5,38.7,30.7,32.9,23.4,11.3,76,56,27,30.01,29.77,34,7,36,0.00
2013-1-24,48.6,40.0,32.1,34.4,30.9,28.1,87,71,49,30.11,30.01,21,4,21,0.00
2013-1-25,41.6,39.5,36.3,36.5,34.2,30.5,87,81,73,30.06,29.83,20,6,20,0.09
2013-1-26,41.5,32.7,26.9,31.0,21.0,16.2,81,62,44,29.98,29.82,24,6,25,0.00
2013-1-27,36.2,29.1,24.8,22.4,19.0,11.8,77,66,39,30.06,29.95,20,5,21,0.00
2013-1-28,34.1,31.7,28.8,24.8,21.8,18.9,74,67,55,30.08,29.95,30,8,30,0.00
2013-1-29,42.5,36.6,32.7,28.0,25.4,22.4,72,64,54,30.33,30.06,33,9,33,0.00
2013-1-30,45.2,38.8,34.4,31.4,27.9,22.5,75,65,56,30.36,30.31,20,5,20,0.00
2013-1-31,48.5,34.0,24.8,29.8,24.7,19.8,85,70,36,30.35,30.22,14,2,14,0.00
2013-2-1,55.0,32.1,22.2,29.5,22.4,17.5,85,70,35,30.41,30.23,10,0,10,0.00
2013-2-2,50.2,32.6,19.2,29.6,22.4,14.6,86,68,36,30.46,30.18,14,1,14,0.01
2013-2-3,55.9,41.5,27.6,26.8,21.4,14.1,78,48,19,30.26,30.03,22,5,24,0.00
2013-2-4,52.9,42.3,30.4,24.4,19.0,11.0,65,41,21,30.05,29.82,20,4,20,0.00
2013-2-5,43.3,38.8,31.0,30.0,20.1,12.0,76,48,30,29.99,29.77,24,7,25,0.00
2013-2-6,45.4,36.4,29.1,23.0,19.7,15.7,69,51,32,30.07,29.80,24,6,25,0.00
2013-2-7,38.9,31.8,22.5,24.1,18.4,10.8,79,59,34,30.04,29.79,19,3,19,0.00
2013-2-8,40.8,28.0,16.1,23.6,15.8,8.3,83,63,30,30.19,30.01,14,0,14,0.00
2013-2-9,46.2,26.7,13.5,25.0,17.1,7.5,84,69,42,30.23,30.10,8,0,8,0.00
2013-2-10,47.0,29.4,18.8,25.4,17.8,13.6,86,65,30,30.34,30.17,7,0,7,0.00
2013-2-11,53.5,31.5,18.6,27.4,19.8,13.1,83,65,30,30.36,30.16,16,0,16,0.00
2013-2-12,51.6,35.5,24.7,27.9,24.4,20.3,85,66,37,30.44,30.24,11,1,11,0.00
2013-2-13,45.7,37.2,25.8,30.4,26.5,21.3,85,66,49,30.40,30.27,17,2,18,0.00
2013-2-14,55.4,34.8,23.6,31.0,25.0,19.4,86,70,36,30.52,30.39,7,1,8,0.00
2013-2-15,60.4,36.2,22.5,35.4,25.7,17.9,87,69,33,30.50,30.10,11,1,11,0.01
2013-2-16,51.6,38.3,25.4,31.2,23.3,16.8,76,56,30,30.21,30.01,25,5,25,0.00
2013-2-17,44.1,29.2,19.2,18.2,14.0,-2.8,81,58,18,30.20,30.01,14,1,14,0.00
2013-2-18,40.3,31.7,21.9,19.4,15.5,7.8,75,53,27,30.01,29.66,19,2,20,0.00
2013-2-19,43.1,29.8,20.0,22.6,17.6,13.9,79,62,33,29.87,29.53,7,1,8,0.00
2013-2-20,40.9,27.8,15.1,22.8,15.7,9.3,80,62,35,30.08,29.77,17,3,22,0.00
2013-2-21,35.9,30.7,26.3,22.6,20.6,14.7,78,66,42,30.12,29.90,22,7,27,0.00
2013-2-22,45.1,33.4,26.6,30.3,24.1,17.7,84,69,43,30.10,29.81,35,10,35,0.04
2013-2-23,36.9,28.0,19.7,21.3,16.9,13.6,81,63,44,30.35,29.93,25,4,25,0.02
2013-2-24,43.6,30.5,18.9,27.3,18.5,12.0,81,62,38,30.41,30.05,22,4,24,0.00
2013-2-25,36.8,32.2,24.5,28.9,19.9,9.1,84,61,33,30.27,29.91,24,6,27,0.00
2013-2-26,44.9,32.6,22.5,19.8,14.2,8.9,71,49,25,30.35,30.17,20,4,20,0.00
2013-2-27,44.5,36.7,28.7,28.0,20.1,11.7,65,51,39,30.27,30.16,19,5,22,0.00
2013-2-28,37.9,37.4,36.9,26.4,25.9,25.7,64,63,61,30.18,30.17,12,6,13,0.00
2013-3-2,53.2,44.1,36.2,31.9,29.0,24.0,71,56,32,30.18,29.97,19,6,20,0.00
2013-3-3,48.0,35.4,19.2,28.6,17.7,-3.0,79,54,12,30.19,29.99,11,0,12,0.00
2013-3-4,50.4,29.5,12.8,19.2,12.5,4.9,77,53,23,30.26,29.90,11,1,12,0.00
2013-3-5,45.1,33.3,23.2,33.3,24.0,15.3,83,69,46,29.91,29.56,14,1,17,0.02
2013-3-6,35.6,32.1,27.8,28.8,24.4,18.6,86,73,55,29.92,29.45,25,6,27,0.08
2013-3-7,43.3,30.8,17.2,27.9,20.1,11.8,83,66,38,30.05,29.90,8,1,8,0.00
2013-3-8,44.1,30.6,21.8,28.3,22.1,16.9,85,72,44,30.17,29.93,7,0,8,0.01
2013-3-9,57.0,31.8,15.9,21.0,15.5,10.3,83,57,20,30.50,30.16,12,1,14,0.00
2013-3-10,59.9,38.7,22.4,33.1,21.6,7.2,77,55,18,30.52,30.26,12,2,14,0.00
2013-3-11,56.2,43.3,29.3,36.2,32.3,24.8,83,66,44,30.27,30.13,14,2,16,0.00
2013-3-12,61.5,45.3,29.1,34.8,27.4,12.6,85,55,18,30.21,29.99,34,4,34,0.00
2013-3-13,65.8,48.3,32.1,34.4,26.8,21.2,73,46,24,30.15,29.97,19,4,19,0.00
2013-3-14,64.3,50.0,31.2,30.8,25.7,18.6,75,41,19,30.09,29.91,14,5,19,0.00
2013-3-15,60.4,46.0,32.1,34.3,30.1,24.1,76,56,27,30.11,29.99,16,3,17,0.00
2013-3-16,49.9,39.5,31.8,30.4,27.1,21.6,82,62,37,30.02,29.87,27,6,28,0.00
2013-3-17,39.2,32.3,26.1,23.3,16.8,10.6,68,53,37,30.17,29.90,26,8,30,0.00
2013-3-18,51.9,34.9,23.5,22.2,15.0,-1.3,74,49,12,30.20,30.04,18,3,21,0.00
2013-3-19,55.3,37.7,22.2,38.5,22.9,11.6,84,59,27,30.14,29.61,28,2,28,0.14
2013-3-20,44.1,39.0,28.8,37.4,29.6,16.4,83,69,50,30.02,29.51,34,10,38,0.15
2013-3-21,38.3,29.9,25.1,23.0,17.9,12.9,71,61,39,30.18,30.02,24,7,26,0.00
2013-3-22,40.2,28.5,18.4,18.0,12.9,4.6,78,54,25,30.30,30.14,14,1,16,0.00
2013-3-23,43.2,28.2,16.5,16.6,12.9,1.8,79,56,22,30.34,30.17,13,1,13,0.00
2013-3-24,50.2,33.9,18.9,23.0,18.3,12.6,77,55,29,30.26,30.01,7,0,11,0.00
2013-3-25,55.0,40.1,26.4,27.9,24.1,19.5,75,54,33,30.02,29.83,7,0,7,0.00
2013-3-26,51.4,40.1,32.8,36.6,32.1,26.5,86,74,51,29.90,29.83,7,0,7,0.03
2013-3-27,54.4,39.3,26.7,39.5,31.8,23.1,88,76,43,29.93,29.81,19,1,24,0.07
2013-3-28,56.6,43.5,34.9,40.1,36.0,31.4,89,77,42,30.03,29.88,13,1,13,0.14
2013-3-29,60.1,45.0,32.7,41.6,35.5,28.7,89,72,39,30.15,30.01,14,1,16,0.00
2013-3-30,72.1,47.3,27.6,42.2,33.2,24.2,90,63,30,30.21,29.94,9,0,10,0.00
2013-3-31,70.3,47.7,27.8,41.2,32.4,19.8,88,60,27,30.00,29.78,17,1,21,0.00
2013-4-1,61.8,48.1,34.0,40.4,35.7,29.0,88,65,40,30.03,29.77,10,0,11,0.00
2013-4-2,62.9,45.6,29.1,37.7,32.7,25.2,87,63,33,30.12,29.99,18,2,18,0.00
2013-4-3,64.5,47.4,30.0,35.7,29.9,21.1,87,56,21,30.11,29.84,20,2,20,0.00
2013-4-4,59.5,47.4,40.3,39.9,34.5,31.2,75,61,40,29.84,29.61,38,6,41,0.00
2013-4-5,53.2,43.3,39.1,37.6,33.1,29.7,78,68,42,29.90,29.76,25,7,25,0.03
2013-4-6,49.6,41.6,37.2,34.3,31.5,26.3,81,68,44,29.90,29.67,28,7,32,0.07
2013-4-7,40.5,39.6,37.8,33.6,32.5,31.5,81,76,71,29.67,29.50,64,18,64,0.00
2013-6-8,89.0,76.9,51.4,47.2,38.3,23.5,61,28,12,29.90,29.79,10,1,12,0.00
2013-6-9,88.2,64.0,40.6,46.7,36.8,26.8,82,42,17,29.83,29.66,13,1,13,0.00
2013-6-10,81.8,57.2,30.0,39.3,30.9,15.8,85,43,15,29.76,29.59,8,1,13,0.00
2013-6-11,63.4,51.1,33.1,35.5,28.6,21.5,75,43,21,30.02,29.65,20,5,28,0.00
2013-6-12,67.6,46.5,26.3,35.1,27.0,13.7,81,50,26,30.03,29.94,12,1,28,0.00
2013-6-13,34.0,30.2,27.3,27.4,23.1,20.1,79,75,70,30.05,30.00,1,0,28,0.00
2013-6-14,73.5,49.3,27.2,35.5,28.3,18.0,86,49,19,30.20,29.83,8,1,21,0.00
2013-6-15,54.7,36.4,30.3,38.7,26.3,17.2,84,68,40,29.91,29.80,5,0,5,0.00
2013-6-16,79.6,60.3,40.1,50.7,39.4,32.6,79,50,23,29.92,29.78,7,1,19,0.00
2013-6-17,77.7,63.2,37.8,45.7,38.7,24.3,75,42,18,29.95,29.70,11,2,19,0.00
2013-6-18,62.6,52.8,44.8,45.9,39.7,34.6,81,62,43,29.81,29.71,10,0,16,0.00
2013-6-19,58.9,48.7,40.2,37.0,32.0,27.9,75,54,33,29.96,29.76,24,6,31,0.00
2013-6-20,62.1,48.9,35.0,35.7,30.1,20.6,72,50,31,30.02,29.89,17,3,31,0.00
2013-6-21,66.4,48.8,31.2,38.3,34.6,23.3,87,60,31,30.05,29.97,8,0,31,0.00
2013-6-22,76.3,55.1,29.7,42.2,34.7,23.7,90,51,25,30.06,29.72,14,1,31,0.00
2013-6-23,61.2,54.9,48.6,52.2,45.2,37.4,81,70,53,29.73,29.53,12,1,31,0.00
2013-6-24,58.4,51.6,47.6,45.4,41.9,38.1,79,70,53,29.64,29.51,13,3,31,0.00
2013-6-25,62.6,54.5,48.9,48.4,43.0,39.6,77,66,46,29.76,29.59,25,4,31,0.00
2013-6-26,67.8,56.7,46.7,55.1,47.3,39.8,81,71,54,29.96,29.76,11,1,31,0.00
2013-6-27,84.1,62.3,40.6,51.9,45.4,35.2,83,58,29,30.02,29.93,12,2,31,0.00
2013-6-28,92.3,70.0,46.5,57.4,49.4,39.9,92,54,24,30.04,29.82,12,0,31,0.00
2013-6-29,89.5,71.4,52.9,57.1,50.5,43.6,75,51,29,29.93,29.76,8,1,31,0.00
2013-6-30,95.9,75.0,48.3,56.9,49.9,35.7,88,46,23,29.87,29.63,11,0,31,0.00
2013-7-1,95.9,78.8,60.9,57.2,51.8,41.3,68,43,17,29.80,29.64,11,1,31,0.00
2013-7-2,101.7,77.3,57.0,60.2,52.2,39.8,85,48,14,29.83,29.73,12,1,31,0.00
2013-7-3,97.8,75.4,56.9,57.3,49.5,38.3,70,44,23,29.84,29.71,10,1,31,0.00
2013-7-4,87.2,67.5,49.8,42.7,37.9,32.0,64,37,15,29.84,29.69,12,1,31,0.00
2013-7-5,82.0,62.7,40.9,42.2,34.6,22.7,81,40,16,29.78,29.66,13,0,31,0.00
2013-7-6,87.2,57.5,30.9,40.9,30.8,17.9,75,42,13,29.80,29.62,11,0,31,0.00
2013-7-7,88.0,65.3,39.3,46.5,37.9,25.9,77,41,14,29.75,29.63,14,1,31,0.00
2013-7-8,88.2,62.6,41.9,41.5,35.0,27.9,73,40,13,29.90,29.72,9,0,31,0.00
2013-7-9,92.9,70.6,43.3,51.3,41.4,28.0,79,40,14,29.91,29.72,17,1,31,0.00
2013-7-10,91.8,69.8,49.6,50.2,41.7,35.5,76,40,18,29.83,29.63,17,2,31,0.00
2013-7-11,59.8,54.7,51.4,40.1,38.4,35.9,62,54,42,29.72,29.68,5,0,31,0.00
2013-7-13,80.9,71.0,47.1,39.0,31.7,22.3,60,24,17,29.98,29.72,10,1,19,0.00
2013-7-14,87.2,64.0,36.3,44.2,31.9,16.5,64,33,14,30.00,29.74,14,1,19,0.00
2013-7-15,90.7,66.7,41.3,45.8,36.5,26.4,80,38,18,29.82,29.63,11,1,19,0.00
2013-7-16,83.4,69.6,53.8,45.7,36.4,28.4,57,31,20,29.81,29.61,13,1,19,0.00
2013-7-17,85.7,68.9,52.2,42.5,37.1,31.5,56,34,16,29.97,29.77,15,2,19,0.00
2013-7-18,93.4,68.7,41.8,48.2,36.5,25.6,60,35,14,30.01,29.79,10,1,19,0.00
2013-7-19,95.4,71.0,42.3,42.8,32.7,25.0,69,32,11,29.93,29.72,10,0,19,0.00
2013-7-20,97.5,69.1,42.8,48.6,33.6,22.5,75,33,10,29.83,29.65,11,0,19,0.00
2013-7-21,99.7,69.1,41.2,45.5,31.2,16.6,81,32,7,29.75,29.63,13,1,19,0.00
2013-7-22,95.9,68.9,42.2,41.2,31.7,21.9,65,31,9,29.82,29.69,12,1,19,0.00
2013-7-23,96.3,69.5,44.5,48.1,36.3,26.6,67,35,9,29.84,29.72,10,1,19,0.00
2013-7-24,93.2,71.8,51.7,45.9,37.0,23.7,58,32,10,29.83,29.74,14,1,19,0.00
2013-7-25,99.7,74.4,48.2,46.8,38.0,28.9,70,32,10,29.87,29.76,17,1,19,0.00
2013-7-26,98.7,74.3,50.4,43.3,35.4,25.4,52,27,12,29.89,29.79,17,1,19,0.00
2013-7-27,91.2,66.6,41.5,41.1,32.2,25.4,59,32,11,29.95,29.72,14,1,19,0.00
2013-7-28,86.3,62.1,40.3,38.2,32.4,22.0,71,38,15,29.81,29.68,12,1,19,0.00
2013-7-29,83.8,62.4,37.5,43.8,34.5,22.6,78,41,15,29.81,29.71,13,1,19,0.00
2013-7-30,85.9,67.4,47.7,44.0,36.8,25.4,73,38,12,29.93,29.77,17,2,19,0.00
2013-7-31,84.7,63.2,49.8,50.2,40.5,33.8,78,47,20,29.92,29.77,18,0,20,0.00
2013-8-1,76.0,57.5,48.5,53.1,44.8,37.7,82,64,32,29.95,29.77,17,2,20,0.00
2013-8-2,77.2,57.4,36.6,46.9,36.9,25.2,81,50,22,30.00,29.86,14,1,20,0.00
2013-8-3,84.1,60.3,35.5,44.7,35.0,28.2,88,46,17,30.00,29.80,12,1,20,0.00
2013-8-4,91.0,65.9,41.2,47.7,38.7,27.1,70,41,16,29.92,29.73,14,1,20,0.00
2013-8-5,88.6,66.9,45.1,49.2,40.4,34.2,76,42,20,29.85,29.73,10,0,20,0.00
2013-8-6,89.5,68.2,44.8,48.2,39.6,33.5,78,40,16,29.84,29.70,14,2,20,0.00
2013-8-7,81.8,66.6,47.1,44.3,38.7,32.7,59,38,21,29.84,29.74,30,3,32,0.00
2013-8-8,87.4,66.7,44.5,49.8,40.2,33.3,71,41,19,29.88,29.69,11,1,32,0.00
2013-8-9,85.5,65.3,47.4,55.4,45.0,38.8,74,50,25,29.80,29.61,26,2,32,0.00
2013-8-10,79.2,57.5,40.8,59.0,42.0,29.7,78,58,31,29.90,29.77,10,1,32,0.00
2013-8-11,78.6,60.6,43.8,45.5,41.1,33.9,83,52,25,29.96,29.77,19,2,32,0.00
2013-8-12,83.6,62.6,41.6,46.8,40.0,28.8,76,47,22,29.90,29.77,18,1,32,0.00
2013-8-13,87.0,65.0,44.3,44.9,39.0,30.3,76,42,19,29.93,29.76,13,1,32,0.00
2013-8-14,87.0,65.6,44.6,46.4,40.5,33.7,74,44,20,29.84,29.71,19,2,32,0.00
2013-8-15,55.1,51.2,48.8,39.0,37.7,36.3,67,60,53,29.78,29.76,5,0,32,0.00
2013-8-17,87.8,73.5,48.5,52.0,47.9,38.5,77,42,26,29.91,29.69,16,1,18,0.00
2013-8-18,91.2,64.9,42.3,52.0,41.3,33.6,82,49,17,29.98,29.83,10,1,18,0.00
2013-8-19,93.6,67.7,43.5,48.6,42.6,35.0,82,46,19,29.94,29.79,13,1,18,0.00
2013-8-20,87.2,63.1,40.3,45.8,33.5,20.0,80,40,13,29.96,29.79,10,0,18,0.00
2013-8-21,85.5,65.2,42.9,41.9,32.1,19.7,53,31,18,29.90,29.76,8,0,18,0.00
2013-8-22,78.5,61.8,50.5,52.0,42.0,27.7,73,50,29,29.86,29.72,32,3,32,0.00
2013-8-23,79.0,64.0,50.5,47.5,43.6,39.1,72,50,27,29.81,29.63,21,4,32,0.00
2013-8-24,79.2,61.1,42.6,49.1,42.6,34.3,79,54,27,29.72,29.60,16,1,32,0.00
2013-8-25,73.7,56.4,44.3,53.9,44.8,39.2,84,66,39,29.84,29.64,22,2,32,0.00
2013-8-26,73.3,58.2,43.6,50.6,43.6,38.5,84,61,30,29.86,29.75,19,3,25,0.00
2013-8-27,82.0,60.8,40.8,48.1,40.5,34.0,82,54,19,29.88,29.63,15,2,25,0.00
2013-8-28,82.6,64.9,45.2,49.1,42.3,36.4,82,49,21,29.75,29.65,22,2,25,0.00
2013-8-29,80.7,68.2,51.0,48.8,44.4,39.3,73,45,27,29.89,29.70,20,5,29,0.00
2013-8-30,81.4,65.2,48.9,49.8,45.6,41.0,79,52,24,30.01,29.81,13,2,29,0.00
2013-8-31,88.0,64.8,41.3,49.6,42.8,35.3,82,50,19,29.93,29.69,14,1,29,0.00
2013-9-1,87.8,66.9,44.8,48.0,38.6,27.1,77,42,12,29.74,29.54,21,3,29,0.00
2013-9-2,82.4,65.0,46.4,49.7,43.7,31.7,82,51,17,29.76,29.58,22,2,29,0.00
2013-9-3,80.1,60.6,42.3,47.2,39.8,27.7,81,52,16,29.85,29.72,17,2,29,0.00
2013-9-4,83.0,60.2,40.5,46.6,38.8,31.0,82,50,16,29.91,29.75,20,2,29,0.00
2013-9-5,75.3,56.5,45.7,54.0,41.4,35.8,80,58,37,29.93,29.73,28,4,29,0.00
2013-9-6,70.8,56.2,42.1,46.0,41.2,33.7,77,58,37,30.04,29.88,21,5,29,0.00
2013-9-7,79.9,57.2,35.6,46.4,39.6,29.4,88,57,23,30.03,29.82,14,1,29,0.00
2013-9-8,79.0,57.0,38.2,49.8,38.7,25.1,84,54,30,29.99,29.89,13,0,29,0.00
2013-9-9,86.7,60.4,38.2,45.8,36.5,24.8,85,47,17,29.99,29.80,10,0,29,0.00
2013-9-10,88.0,63.2,39.8,46.3,37.8,29.8,72,43,21,29.93,29.75,12,0,29,0.00
2013-9-11,91.6,65.2,41.2,49.4,39.4,31.8,71,43,19,29.95,29.78,7,0,29,0.00
2013-9-12,87.0,67.2,47.3,43.3,36.3,24.1,60,36,19,29.90,29.71,6,0,29,0.00
2013-9-13,88.0,65.1,45.8,54.0,39.1,31.2,62,41,19,29.93,29.66,8,0,12,0.00
2013-9-14,90.3,64.8,45.5,49.2,41.1,34.8,75,47,22,29.76,29.55,7,0,12,0.00
2013-9-15,85.9,64.6,47.9,46.3,39.5,28.9,69,44,13,29.62,29.45,24,4,24,0.00
2013-9-16,75.3,56.9,43.9,44.1,39.6,32.5,75,54,29,29.79,29.61,16,3,24,0.00
2013-9-17,58.3,47.3,39.2,38.3,31.7,24.1,69,55,43,29.89,29.68,13,1,24,0.00
2013-9-18,67.4,46.6,32.7,36.1,28.6,19.7,80,52,27,30.03,29.88,12,1,24,0.00
2013-9-19,79.0,51.2,26.9,38.9,27.8,19.5,82,48,16,30.04,29.70,10,1,24,0.00
2013-9-20,75.3,51.7,30.0,42.7,30.9,20.7,82,50,16,29.72,29.49,25,3,25,0.00
2013-9-21,60.1,49.2,36.8,42.0,36.9,30.4,82,63,40,29.67,29.49,16,3,25,0.08
2013-9-22,55.7,48.5,43.6,44.2,37.7,33.3,79,66,49,29.74,29.63,30,8,30,0.08
2013-9-23,64.2,53.3,48.8,42.0,38.2,34.6,66,57,37,29.86,29.73,24,6,30,0.00
2013-9-24,54.7,46.8,39.8,39.7,34.9,30.4,80,64,44,29.81,29.72,21,5,30,0.00
2013-9-25,48.9,40.8,27.8,33.5,29.9,18.8,82,66,48,29.96,29.70,17,3,30,0.03
2013-9-26,57.0,38.0,24.1,36.2,27.5,20.8,93,69,36,30.12,29.95,10,0,30,0.00
2013-9-27,62.1,41.9,23.9,41.0,30.1,20.6,90,66,26,30.15,29.88,24,5,30,0.00
2013-9-28,61.2,53.0,48.6,45.4,41.4,36.7,88,66,42,29.88,29.50,34,10,42,0.25
2013-9-29,49.6,44.2,39.9,46.3,39.2,34.2,90,82,70,29.67,29.41,34,9,42,0.70
2013-9-30,49.9,43.3,36.6,46.3,32.6,26.0,92,66,48,29.93,29.45,28,7,42,0.77
2013-10-1,48.2,39.4,26.1,35.9,28.5,21.0,89,66,41,30.17,29.89,18,4,42,0.00
2013-10-2,50.7,35.4,22.5,30.9,25.9,19.4,91,70,36,30.16,29.96,14,2,42,0.01
2013-10-3,55.9,36.7,24.4,33.8,26.3,21.1,91,69,36,30.43,30.04,7,0,42,0.01
2013-10-4,64.2,37.3,21.1,33.6,23.0,17.6,88,63,20,30.56,30.34,7,0,42,0.00
2013-10-5,71.6,44.4,24.8,32.5,24.3,19.0,90,54,14,30.41,30.16,14,2,42,0.00
2013-10-6,74.4,50.9,28.1,34.7,27.1,22.1,84,45,17,30.18,29.87,18,3,42,0.00
2013-10-7,54.2,45.4,35.3,36.9,28.5,18.6,75,52,33,30.01,29.81,20,4,42,0.00
2013-10-8,47.4,39.4,30.6,34.2,30.2,23.9,87,70,50,30.05,29.86,19,4,42,0.04
2013-10-9,36.2,34.8,34.0,32.7,31.2,30.3,87,86,86,29.91,29.87,3,0,42,0.05
2013-10-11,48.5,33.4,26.9,32.1,26.8,22.4,86,77,67,30.06,29.86,5,0,14,0.01
2013-10-12,48.3,38.1,26.1,36.8,29.7,22.5,89,72,50,30.06,29.92,9,0,14,0.01
2013-10-13,48.9,40.7,27.0,34.0,31.3,22.0,82,70,46,30.29,30.03,6,0,14,0.00
2013-10-14,58.3,36.3,21.3,43.4,24.6,17.5,89,67,31,30.44,30.28,7,0,14,0.00
2013-10-15,59.5,35.4,18.8,33.8,21.6,14.2,86,63,27,30.46,30.15,12,1,14,0.00
2013-10-16,70.4,43.9,24.7,28.4,23.4,18.4,83,48,18,30.16,29.95,14,1,17,0.00
2013-10-17,64.8,38.9,22.7,39.7,24.6,18.3,89,62,27,30.31,30.10,10,0,17,0.00
2013-10-18,69.6,40.1,22.5,34.8,26.5,18.7,88,63,26,30.33,30.09,6,0,17,0.00
2013-10-19,75.6,46.9,26.6,36.0,26.7,17.2,89,52,15,30.17,29.97,13,1,17,0.00
2013-10-20,73.7,44.0,25.4,35.8,26.0,18.0,87,56,22,30.26,30.01,5,0,17,0.00
2013-10-21,73.3,44.2,26.6,47.9,28.1,21.2,85,58,24,30.26,30.00,6,0,17,0.00
2013-10-22,73.0,43.9,8.9,41.4,28.1,-9.5,84,60,27,30.22,29.98,118,1,118,0.00
2013-10-23,72.0,43.3,26.7,42.1,29.4,17.2,83,62,31,30.19,29.93,6,0,118,0.00
2013-10-24,72.1,44.5,26.3,43.1,29.9,16.9,89,62,26,30.19,29.93,5,0,118,0.00
2013-10-25,72.3,44.6,29.1,38.0,28.1,21.6,83,59,19,30.27,30.02,11,1,118,0.00
2013-10-26,70.8,42.5,26.6,35.3,26.5,20.0,81,58,18,30.32,30.03,13,1,118,0.00
2013-10-27,55.0,35.7,25.0,37.3,28.8,19.5,90,77,30,30.04,29.63,28,2,118,0.39
2013-10-28,37.9,31.7,25.3,34.1,23.9,16.9,86,73,57,29.93,29.66,13,2,118,0.45
2013-10-29,46.0,29.3,20.3,26.3,21.0,14.6,83,72,40,30.10,29.77,5,0,118,0.03
2013-10-30,56.3,36.1,25.4,34.3,26.2,20.1,86,69,33,30.18,29.77,13,1,13,0.03
2013-10-31,57.5,46.5,36.2,43.8,36.2,28.7,86,68,51,30.19,30.01,19,5,21,0.00
2013-11-1,54.7,40.9,27.6,48.8,34.3,24.0,90,78,59,30.26,29.88,18,3,19,0.00
2013-11-2,46.8,39.8,30.6,38.8,30.4,22.7,85,69,44,30.00,29.67,20,7,26,0.04
2013-11-3,41.9,33.8,30.0,26.6,24.1,19.4,77,68,45,30.07,29.94,18,6,26,0.01
2013-11-4,43.1,37.2,32.7,28.8,26.3,23.8,73,65,54,30.11,30.00,15,5,26,0.01
2013-11-5,47.6,42.2,36.0,39.6,34.8,27.3,84,75,66,30.15,30.04,20,8,26,0.00
2013-11-6,53.6,49.5,44.1,44.3,40.5,37.4,81,71,66,30.19,29.92,17,4,26,0.00
2013-11-7,52.8,42.9,35.0,41.9,33.8,23.5,82,70,54,30.04,29.73,31,7,33,0.06
2013-11-8,44.3,37.5,33.7,29.5,27.0,24.2,73,66,49,30.13,29.86,14,3,33,0.06
2013-11-9,53.6,41.1,30.0,33.7,27.6,20.5,76,59,41,30.10,29.80,17,2,33,0.00
2013-11-10,60.9,44.6,27.5,39.3,32.1,23.0,86,64,32,30.10,29.85,14,2,33,0.00
2013-11-11,42.6,34.1,26.3,35.1,30.0,22.8,91,85,73,30.29,29.94,3,0,33,0.00
2013-11-12,54.2,43.4,32.2,43.9,34.6,24.7,88,72,52,30.32,29.95,14,2,33,0.02
2013-11-13,32.2,29.8,27.5,28.8,26.6,24.1,89,88,87,30.47,30.31,4,0,33,0.02
2013-11-14,56.6,37.8,22.4,36.7,27.2,0.0,81,65,61,30.31,29.77,6,0,8,0.00
2013-11-15,39.9,31.6,21.0,25.7,21.4,16.4,86,67,48,30.08,29.49,31,6,35,0.00
2013-11-16,42.6,37.0,34.3,28.3,26.1,21.1,76,64,49,29.77,29.39,28,8,35,0.00
2013-11-17,44.9,38.6,32.9,29.4,26.0,20.5,71,61,50,29.95,29.77,24,6,35,0.00
2013-11-18,47.7,40.3,34.4,33.5,27.8,23.1,78,61,46,29.94,29.68,30,8,35,0.04
2013-11-19,43.6,40.3,37.8,37.1,33.4,30.8,78,76,74,29.74,29.68,26,8,35,0.16
2013-11-20,39.2,28.5,17.0,32.6,15.0,-6.8,79,58,32,30.38,29.74,10,1,32,0.16
2013-11-21,38.2,17.9,4.3,6.2,-1.2,-14.3,74,48,18,30.79,30.38,5,0,32,0.00
2013-11-22,42.9,17.8,2.8,12.6,3.2,-4.0,76,57,21,30.87,30.58,5,0,32,0.00
2013-11-23,45.7,20.5,4.8,16.1,7.6,-1.5,80,61,27,30.66,30.29,5,0,32,0.00
2013-11-24,54.2,30.1,11.9,27.6,13.5,6.4,84,56,16,30.39,30.13,17,2,32,0.00
2013-11-25,59.2,31.0,18.1,22.7,15.3,10.1,80,58,16,30.46,30.10,11,1,32,0.00
2013-11-26,52.0,33.1,18.8,25.0,17.0,2.3,82,56,24,30.33,29.96,13,1,32,0.00
2013-11-27,50.1,31.9,22.9,28.5,20.7,13.2,81,65,43,30.17,29.82,3,0,32,0.00
2013-11-28,57.5,37.8,15.2,26.9,19.1,-5.6,85,53,28,30.29,29.81,9,0,32,0.00
2013-11-29,56.6,38.8,21.3,32.7,22.4,-5.7,86,57,27,30.37,30.10,8,0,32,0.00
2013-11-30,53.3,45.3,40.1,37.3,31.1,22.0,66,58,45,30.23,30.05,14,6,32,0.00
2013-12-1,51.4,46.5,40.9,41.4,35.7,29.7,81,66,53,30.18,29.72,44,12,44,0.00
2013-12-2,46.2,35.3,24.1,34.8,25.3,13.1,83,67,43,29.90,29.67,25,4,44,0.01
2013-12-3,25.7,18.3,7.7,18.0,10.3,0.3,81,71,56,30.24,29.87,11,1,44,0.00
2013-12-4,23.0,5.9,-7.0,3.2,-5.5,-14.6,74,60,33,30.48,30.23,6,0,44,0.01
2013-12-5,24.4,7.7,-8.4,6.1,-3.4,-16.4,76,61,34,30.40,30.17,14,1,44,0.01
2013-12-6,9.2,7.8,6.0,3.4,1.1,-1.4,78,74,71,30.17,29.99,7,0,44,0.00
2013-12-7,11.9,-0.6,-19.0,-0.5,-10.6,-28.6,74,62,40,30.56,30.09,7,0,44,0.00
2013-12-8,20.5,1.4,-9.6,6.6,-7.3,-18.1,74,66,48,30.69,30.45,10,0,44,0.00
2013-12-9,32.8,15.5,-6.1,20.2,4.5,-12.2,74,62,46,30.70,30.06,20,4,44,0.04
2013-12-10,35.0,22.9,11.4,21.0,13.5,6.4,85,68,44,30.48,30.33,11,1,44,0.02
2013-12-11,40.3,26.3,11.4,25.4,17.1,6.4,85,69,48,30.51,30.05,19,3,44,0.02
2013-12-12,30.4,27.7,24.7,19.2,17.6,15.0,70,65,61,30.21,30.18,12,5,44,0.00
2013-12-13,41.8,29.2,23.5,29.0,25.0,15.2,89,84,70,30.45,30.16,12,2,21,0.01
2013-12-14,46.1,39.0,0.0,28.6,26.2,0.0,82,61,46,30.49,30.15,24,7,24,0.01
2013-12-15,53.2,41.4,31.0,37.0,25.8,12.0,91,56,23,30.39,30.23,24,5,26,0.00
2013-12-16,59.5,36.7,25.6,31.0,24.2,19.1,83,64,26,30.46,30.21,15,1,26,0.00
2013-12-17,56.3,40.5,32.4,24.7,20.8,17.2,66,47,23,30.25,30.00,20,4,28,0.00
2013-12-18,42.2,36.0,28.7,29.4,25.6,20.3,84,67,50,30.03,29.79,17,1,28,0.00
2013-12-19,33.8,22.8,10.7,23.6,11.1,3.8,82,62,34,30.26,29.86,5,0,28,0.00
2013-12-20,42.9,32.3,19.9,36.4,22.3,-1.3,81,67,34,30.19,29.80,27,6,34,0.00
2013-12-21,50.4,40.9,34.7,33.6,30.1,27.5,78,66,47,30.10,29.78,22,4,34,0.00
2013-12-22,48.9,42.9,36.0,35.4,31.1,27.0,75,63,47,30.26,30.04,19,4,34,0.00
2013-12-23,48.6,42.7,31.3,38.3,27.7,19.0,77,56,37,30.39,30.15,26,7,34,0.00
2013-12-24,39.2,29.2,24.2,28.7,24.2,20.6,89,82,63,30.50,30.39,14,2,34,0.00
2013-12-25,49.4,39.0,31.9,26.5,21.9,15.9,65,51,27,30.50,30.30,12,2,34,0.00
2013-12-26,59.9,43.1,31.6,28.5,20.7,16.5,65,42,21,30.36,30.13,20,4,22,0.00
2013-12-27,51.7,37.6,25.7,23.3,19.3,15.1,73,49,27,30.27,30.04,17,4,22,0.00
2013-12-28,53.2,27.9,16.9,26.3,15.0,9.6,87,64,18,30.54,30.12,5,0,22,0.00
2013-12-29,48.6,30.1,16.9,17.9,12.1,7.8,77,50,21,30.45,30.29,17,1,22,0.00
2013-12-30,46.4,42.9,28.5,21.6,18.1,13.9,58,37,27,30.32,30.10,20,5,24,0.00
2013-12-31,51.6,39.7,25.4,22.7,17.8,11.1,73,43,22,30.30,30.10,19,2,24,0.00
2014-1-1,53.9,33.0,23.2,30.7,22.6,17.7,83,67,38,30.42,30.20,7,0,24,0.00
2014-1-2,56.6,41.8,26.4,28.8,24.9,21.1,84,54,30,30.28,29.92,22,5,30,0.00